Satellite-Ground Cal/Val Region Overpasses Predictions

Prediction of Satellite NPP Overpassing Cal/Val Region: PacNW

Region Location: (Latitude: 10.00, Longitude: 139.50) to (Latitude: 22.70, Longitude: 165.60).

Table of predicted overpasses for the next 14.0 days since TLE Epoch: 7/22/2016
Interval Starting Time Starting Location Ending Time Ending Location
1 07/22/2016 15:50:02 ( 22.68, 147.61) 07/22/2016 15:53:38 ( 10.00, 144.60)
2 07/23/2016 02:59:07 ( 10.00, 155.14) 07/23/2016 03:02:43 ( 22.69, 152.13)
3 07/23/2016 15:31:00 ( 22.69, 152.37) 07/23/2016 15:34:36 ( 10.02, 149.36)
4 07/24/2016 02:40:05 ( 10.05, 159.89) 07/24/2016 02:43:40 ( 22.68, 156.89)
5 07/24/2016 15:11:58 ( 22.65, 157.12) 07/24/2016 15:15:33 ( 10.03, 154.12)
6 07/25/2016 02:21:03 ( 10.04, 164.65) 07/25/2016 02:24:38 ( 22.67, 161.65)
7 07/25/2016 14:52:56 ( 22.66, 161.88) 07/25/2016 14:56:31 ( 10.04, 158.88)
8 07/26/2016 03:43:30 ( 10.04, 144.03) 07/26/2016 03:47:05 ( 22.66, 141.03)
9 07/26/2016 14:35:06 ( 18.39, 165.59) 07/26/2016 14:37:28 ( 10.05, 163.64)
10 07/26/2016 16:15:23 ( 22.66, 141.26) 07/26/2016 16:17:27 ( 15.38, 139.50)
11 07/27/2016 03:24:28 ( 10.03, 148.79) 07/27/2016 03:28:03 ( 22.66, 145.79)
12 07/27/2016 15:56:21 ( 22.67, 146.03) 07/27/2016 15:59:56 ( 10.05, 143.03)
13 07/28/2016 03:05:26 ( 10.02, 153.56) 07/28/2016 03:09:01 ( 22.65, 150.55)
14 07/28/2016 15:37:18 ( 22.68, 150.79) 07/28/2016 15:40:54 ( 10.00, 147.77)
15 07/29/2016 02:46:23 ( 10.01, 158.32) 07/29/2016 02:49:59 ( 22.70, 155.30)
16 07/29/2016 15:18:16 ( 22.69, 155.55) 07/29/2016 15:21:52 ( 10.01, 152.53)
17 07/30/2016 02:27:21 ( 10.01, 163.08) 07/30/2016 02:30:57 ( 22.69, 160.06)
18 07/30/2016 14:59:13 ( 22.70, 160.31) 07/30/2016 15:02:49 ( 10.02, 157.29)
19 07/31/2016 02:11:01 ( 19.57, 165.59) 07/31/2016 02:11:54 ( 22.68, 164.82)
20 07/31/2016 03:49:48 ( 10.01, 142.46) 07/31/2016 03:53:20 ( 22.46, 139.50)
21 07/31/2016 14:40:12 ( 22.65, 165.05) 07/31/2016 14:43:47 ( 10.03, 162.06)
22 07/31/2016 16:21:41 ( 22.70, 139.69) 07/31/2016 16:21:54 ( 21.93, 139.50)
23
